SL-14 R/B

Satellite information

Favourite Embed

Satellite Type and Status

ROCKET BODYIN ORBIT

Key statistics

Satellite SL-14 R/B at a glance.

Uptime

15259

Days in orbit

Revolutions

≈ 14.9

Per day

Orbit

LEO

Low Earth Orbit

Inclination

82.5

Latest

Satellite identification and parameters

Extended collection of information and parameters for SL-14 R/B.

Object identification

Identified? True

Debris? False

Object name: SL-14 R/B

International designator: 1983-099B

Object number (NORAD): 14373

Object ID (CCSDS): 14373

Country: COMMONWEALTH OF INDEPENDENT STATES (CIS)

Current information (Y/N): Y

RCS size: LARGE

Orbital parameters

Period: 96.911 minutes

Inclination: 82.5389 deg

SMA: 6988.886 km

Apoapsis: 623.53 km

Periapsis: 597.972 km

RAAN: 12.2241 deg

Eccentricy: 0.0018285

Argument of periapsis: 225.6369 deg

Mean anomaly: 134.335 deg

Mean motion: 14.85904345 rev/day

Mean motion (dot): 0.00000355 rev/day2

B* drag term: 0.000037847 1/REarth

Two-line elements (TLE)

Creation date: July 7, 2025, 10:56 p.m.

Reference frame: TEME

Reference center: EARTH

Epoch: July 7, 2025, 9:16 p.m. UTC

TLE line 0: 0 SL-14 R/B

TLE line 1: 1 14373U 83099B 25188.88619716 .00000355 00000-0 37847-4 0 9993

TLE line 2: 2 14373 82.5389 12.2241 0018285 225.6369 134.3350 14.85904345257358

Live tracking on map

Real-time ground track for satellite SL-14 R/B.

In-orbit conjunctions

A list of the most updated potential collisions computed for object SL-14 R/B.

Target Orbit TCA Probability of collision Miss distance Type
SL-16 DEB LEO 2024-11-08 17:36:53 0.0006212532 612.0 (m) DEBRIS

Associated space launch

Experimental ocean-monitoring satellite

SL-14 R/B was lifted into orbit during the mission ‘Tsiklon-3 | Okean-OE 1’, on board a Tsiklon-3 space rocket.

The launch took place on Sept. 28, 1983, 7:59 a.m. from 32/1.

For more information about the launch, click the button.

Launch to space Tsiklon-3 | Okean-OE 1
Tsiklon-3 | Okean-OE 1

Agency: N/A

Status: Launch Successful

Launch date: Sept. 28, 1983, 7:59 a.m. UTC

Rocket: Tsiklon-3

Launch pad: 32/1

Location: Plesetsk Cosmodrome, Russian Federation

...

Latest news about this satellite

There are no fresh news available about this satellite. Check back as we update our databases every day.


Newsletter sign-up

Weekly statistics, charts and insights to help you stay on top of the space industry.